User: anonymous   Login
Location: Unspecified
(0.0000°N, 0.0000°E)
Time: 13:40:33
(UTC+01:00)
Language:

Ariane H10 - Orbit

View from above orbital plane
View from above orbital plane
View from above satellite
View from above satellite

Ground track
Ground track

The orbit data is extracted from the following two-line orbital elements,

1 21815U 91084C   15061.16319366  .00000420  00000-0  17283-2 0  9996
2 21815 004.0202 065.5044 7194960 112.3818 351.3099 02.31202580192916
Epoch (UTC): 02 March 2015 03:54:59
Eccentricity: 0.7194960
inclination: 4.0202°
perigee height: 398 km
apogee height: 35162 km
right ascension of ascending node: 65.5044°
argument of perigee: 112.3818°
revolutions per day: 2.31202580
mean anomaly at epoch: 351.3099°
orbit number at epoch: 19291

The dashed part of the orbit path shows where the satellite is in the earth's shadow,  

DLR